Precipitable_Water
0.45 0.42 0.40 0.39 0.40 0.43 0.44 0.34 0.21 0.44 0.56 0.31 0.31 0.24 0.30 0.28 0.23 0.32 0.31 0.31 0.31 0.29 0.31 0.32 0.36 0.39 0.42 0.52 0.49 0.35 0.36 0.34 0.27 0.33 0.42 0.45 0.42 0.34 0.34 0.28 0.30 0.35 0.32 0.31
0.45 0.45 0.39 0.41 0.41 0.47 0.42 0.29 0.28 0.46 0.50 0.22 0.23 0.30 0.29 0.30 0.25 0.28 0.29 0.28 0.32 0.34 0.30 0.27 0.36 0.40 0.45 0.49 0.45 0.42 0.48 0.33 0.27 0.29 0.36 0.42 0.38 0.40 0.40 0.39 0.37 0.30 0.28 0.31
0.45 0.46 0.39 0.43 0.43 0.45 0.47 0.34 0.22 0.32 0.38 0.37 0.27 0.29 0.25 0.27 0.30 0.30 0.33 0.32 0.35 0.32 0.29 0.32 0.29 0.32 0.40 0.45 0.48 0.47 0.59 0.48 0.35 0.27 0.35 0.41 0.36 0.38 0.39 0.37 0.32 0.33 0.32 0.35
0.44 0.45 0.40 0.45 0.45 0.47 0.46 0.36 0.27 0.30 0.24 0.22 0.27 0.35 0.26 0.22 0.22 0.32 0.35 0.31 0.31 0.28 0.24 0.27 0.25 0.28 0.32 0.35 0.47 0.49 0.48 0.41 0.47 0.49 0.48 0.47 0.43 0.41 0.40 0.37 0.37 0.32 0.35 0.35
0.45 0.43 0.41 0.43 0.45 0.49 0.43 0.30 0.28 0.34 0.27 0.35 0.28 0.32 0.30 0.22 0.25 0.30 0.30 0.30 0.35 0.35 0.28 0.26 0.25 0.29 0.29 0.29 0.36 0.39 0.44 0.39 0.42 0.35 0.45 0.47 0.42 0.44 0.42 0.41 0.40 0.40 0.41 0.40
0.36 0.39 0.43 0.43 0.47 0.51 0.41 0.43 0.44 0.36 0.26 0.27 0.32 0.31 0.31 0.26 0.31 0.35 0.37 0.37 0.35 0.31 0.33 0.37 0.37 0.38 0.36 0.34 0.31 0.33 0.37 0.40 0.35 0.28 0.37 0.35 0.32 0.39 0.42 0.44 0.47 0.45 0.39 0.46
0.39 0.40 0.41 0.45 0.50 0.55 0.49 0.46 0.42 0.32 0.22 0.27 0.28 0.33 0.32 0.29 0.33 0.32 0.39 0.39 0.37 0.41 0.47 0.44 0.40 0.37 0.35 0.33 0.33 0.33 0.30 0.42 0.39 0.31 0.30 0.20 0.34 0.48 0.44 0.41 0.46 0.46 0.44 0.47
0.47 0.47 0.52 0.58 0.60 0.61 0.55 0.53 0.45 0.34 0.25 0.27 0.31 0.31 0.29 0.35 0.39 0.38 0.39 0.43 0.49 0.50 0.44 0.33 0.27 0.25 0.25 0.24 0.28 0.28 0.32 0.32 0.33 0.27 0.27 0.29 0.29 0.37 0.38 0.38 0.36 0.46 0.41 0.45
0.62 0.62 0.62 0.63 0.64 0.64 0.60 0.56 0.56 0.46 0.30 0.25 0.31 0.34 0.34 0.29 0.32 0.37 0.40 0.50 0.55 0.48 0.38 0.32 0.22 0.18 0.19 0.18 0.24 0.35 0.30 0.29 0.29 0.28 0.21 0.18 0.27 0.38 0.45 0.42 0.22 0.39 0.44 0.43
0.64 0.64 0.64 0.64 0.65 0.65 0.61 0.56 0.60 0.47 0.34 0.37 0.36 0.28 0.33 0.42 0.39 0.36 0.40 0.42 0.43 0.47 0.35 0.27 0.25 0.22 0.27 0.18 0.20 0.22 0.22 0.25 0.20 0.26 0.23 0.26 0.34 0.39 0.42 0.22 0.23 0.33 0.43 0.42
0.61 0.65 0.66 0.67 0.66 0.67 0.63 0.56 0.64 0.50 0.39 0.41 0.44 0.42 0.37 0.39 0.40 0.34 0.41 0.40 0.41 0.39 0.30 0.28 0.27 0.24 0.26 0.23 0.25 0.26 0.23 0.20 0.21 0.22 0.20 0.18 0.38 0.41 0.28 0.31 0.34 0.37 0.37 0.37
0.61 0.59 0.61 0.63 0.65 0.69 0.67 0.53 0.65 0.64 0.48 0.47 0.57 0.54 0.54 0.47 0.45 0.44 0.46 0.39 0.40 0.40 0.33 0.32 0.31 0.26 0.29 0.25 0.20 0.31 0.23 0.28 0.25 0.26 0.24 0.38 0.45 0.40 0.42 0.41 0.34 0.35 0.37 0.35
0.64 0.62 0.63 0.61 0.63 0.67 0.66 0.57 0.62 0.58 0.46 0.45 0.49 0.48 0.57 0.61 0.58 0.59 0.43 0.45 0.46 0.43 0.43 0.36 0.33 0.27 0.30 0.23 0.24 0.25 0.29 0.33 0.26 0.26 0.28 0.30 0.34 0.40 0.43 0.41 0.38 0.40 0.42 0.45
0.61 0.62 0.64 0.63 0.62 0.65 0.64 0.58 0.63 0.58 0.49 0.36 0.40 0.53 0.54 0.63 0.64 0.62 0.58 0.53 0.54 0.51 0.48 0.39 0.34 0.29 0.36 0.28 0.29 0.26 0.28 0.32 0.28 0.27 0.31 0.34 0.38 0.41 0.42 0.40 0.42 0.41 0.44 0.47
0.58 0.62 0.63 0.65 0.63 0.63 0.64 0.63 0.63 0.64 0.49 0.36 0.39 0.50 0.52 0.59 0.61 0.57 0.58 0.56 0.52 0.48 0.41 0.37 0.34 0.40 0.39 0.40 0.37 0.31 0.38 0.34 0.29 0.26 0.38 0.36 0.35 0.43 0.45 0.43 0.41 0.45 0.44 0.48
0.59 0.62 0.65 0.66 0.63 0.63 0.56 0.44 0.60 0.64 0.62 0.44 0.33 0.49 0.48 0.53 0.56 0.55 0.56 0.56 0.53 0.49 0.43 0.42 0.44 0.47 0.42 0.34 0.30 0.39 0.42 0.45 0.45 0.40 0.46 0.46 0.48 0.50 0.48 0.46 0.46 0.46 0.46 0.50
0.61 0.66 0.64 0.65 0.65 0.60 0.47 0.42 0.49 0.62 0.63 0.44 0.35 0.35 0.49 0.52 0.53 0.55 0.54 0.56 0.53 0.50 0.47 0.41 0.42 0.43 0.44 0.35 0.27 0.37 0.41 0.42 0.45 0.49 0.49 0.45 0.49 0.46 0.50 0.50 0.50 0.51 0.50 0.54
0.63 0.65 0.65 0.66 0.65 0.62 0.51 0.60 0.62 0.63 0.52 0.48 0.33 0.34 0.40 0.53 0.44 0.43 0.53 0.48 0.51 0.51 0.47 0.48 0.43 0.44 0.44 0.33 0.35 0.38 0.39 0.40 0.43 0.44 0.49 0.48 0.51 0.51 0.50 0.50 0.49 0.47 0.50 0.53
0.64 0.66 0.66 0.59 0.54 0.46 0.51 0.64 0.64 0.64 0.51 0.34 0.34 0.28 0.28 0.49 0.44 0.47 0.47 0.49 0.38 0.49 0.40 0.41 0.46 0.39 0.32 0.32 0.34 0.35 0.37 0.37 0.39 0.44 0.48 0.48 0.46 0.46 0.47 0.47 0.47 0.47 0.47 0.51
0.62 0.59 0.48 0.40 0.50 0.64 0.62 0.53 0.44 0.45 0.45 0.44 0.32 0.42 0.33 0.42 0.40 0.36 0.38 0.40 0.36 0.31 0.37 0.46 0.37 0.34 0.38 0.36 0.35 0.36 0.35 0.36 0.39 0.39 0.40 0.42 0.41 0.41 0.44 0.46 0.47 0.46 0.47 0.50
0.55 0.44 0.40 0.54 0.64 0.53 0.45 0.34 0.32 0.33 0.30 0.35 0.37 0.38 0.35 0.46 0.34 0.33 0.40 0.33 0.35 0.27 0.31 0.33 0.29 0.26 0.30 0.34 0.34 0.35 0.36 0.36 0.38 0.41 0.42 0.43 0.43 0.42 0.45 0.45 0.46 0.45 0.46 0.46
0.49 0.48 0.55 0.53 0.44 0.38 0.30 0.29 0.32 0.29 0.29 0.36 0.34 0.37 0.44 0.46 0.50 0.40 0.40 0.33 0.34 0.24 0.35 0.30 0.21 0.24 0.28 0.30 0.31 0.32 0.34 0.36 0.37 0.38 0.38 0.39 0.40 0.41 0.40 0.41 0.43 0.43 0.43 0.44
0.45 0.39 0.35 0.32 0.28 0.23 0.22 0.21 0.25 0.27 0.34 0.38 0.41 0.37 0.43 0.44 0.45 0.38 0.35 0.28 0.26 0.34 0.26 0.21 0.20 0.26 0.30 0.32 0.33 0.34 0.36 0.36 0.37 0.36 0.37 0.37 0.37 0.39 0.37 0.37 0.41 0.41 0.40 0.40
0.31 0.27 0.23 0.22 0.21 0.22 0.24 0.25 0.27 0.33 0.36 0.38 0.40 0.38 0.37 0.38 0.31 0.32 0.25 0.27 0.28 0.21 0.17 0.17 0.23 0.27 0.30 0.33 0.35 0.35 0.34 0.35 0.35 0.35 0.35 0.35 0.35 0.35 0.37 0.38 0.38 0.37 0.36 0.36
0.28 0.26 0.20 0.21 0.25 0.27 0.29 0.32 0.32 0.35 0.39 0.39 0.36 0.33 0.33 0.29 0.27 0.27 0.24 0.21 0.18 0.18 0.18 0.21 0.25 0.28 0.30 0.32 0.33 0.33 0.33 0.34 0.34 0.34 0.33 0.33 0.33 0.34 0.34 0.35 0.35 0.35 0.35 0.34
0.27 0.25 0.22 0.25 0.24 0.25 0.27 0.29 0.30 0.36 0.38 0.37 0.33 0.28 0.25 0.25 0.25 0.23 0.21 0.20 0.18 0.20 0.23 0.26 0.28 0.28 0.30 0.30 0.32 0.32 0.33 0.33 0.32 0.33 0.33 0.33 0.33 0.32 0.32 0.33 0.33 0.33 0.32 0.31
0.26 0.24 0.28 0.27 0.27 0.26 0.28 0.31 0.33 0.39 0.35 0.28 0.28 0.24 0.23 0.26 0.22 0.21 0.22 0.20 0.22 0.24 0.26 0.28 0.29 0.29 0.29 0.30 0.31 0.31 0.31 0.31 0.31 0.31 0.31 0.31 0.31 0.31 0.31 0.29 0.30 0.30 0.29 0.28
Wind_Speed
38 36 35 33 32 31 30 28 27 24 23 27 27 29 28 27 24 25 22 18 18 15 12 12 9 9 8 5 9 16 22 16 20 19 17 19 22 23 26 21 18 16 16 19
38 36 34 33 31 29 26 26 26 24 24 25 28 25 27 26 25 24 22 21 18 16 15 13 13 13 10 6 5 9 14 19 17 16 19 18 21 22 20 20 20 25 21 17
37 35 33 32 31 30 28 24 21 22 26 26 27 25 26 24 24 24 24 21 20 19 18 17 17 13 15 11 10 10 13 13 15 18 13 17 19 21 23 24 20 20 22 21
36 35 33 31 31 30 28 27 24 21 18 25 27 27 24 25 22 22 21 22 27 24 22 21 21 20 15 15 13 11 11 13 15 14 14 13 16 20 22 22 24 24 23 23
35 35 33 32 31 30 31 27 25 22 23 18 24 28 25 24 23 21 19 21 17 22 25 24 20 18 18 18 16 15 14 14 14 14 15 15 16 16 18 20 20 22 23 24
36 35 33 32 31 31 28 28 27 23 22 22 19 21 24 23 22 20 22 18 19 22 23 23 24 24 25 24 20 18 18 17 15 15 14 15 15 15 14 14 15 17 19 22
36 35 33 32 32 33 31 25 25 24 25 24 23 21 23 22 24 20 17 20 20 17 17 18 21 23 25 26 26 24 20 18 18 17 15 15 15 14 15 14 13 12 14 16
36 35 35 35 34 34 32 29 25 25 24 25 23 24 24 23 19 22 20 16 15 15 15 15 15 16 18 23 26 27 26 22 19 18 19 17 16 14 14 14 15 14 16 17
33 34 34 34 34 34 33 31 30 22 24 27 25 21 23 22 21 18 17 15 15 17 15 15 14 14 14 14 16 21 25 25 22 20 20 21 20 18 17 16 18 17 18 19
27 30 32 33 33 34 33 28 33 29 20 20 25 26 22 20 19 15 13 15 14 16 15 14 14 14 13 12 12 13 17 19 25 21 22 22 22 20 21 20 20 23 22 23
25 27 29 31 31 34 34 32 32 31 21 20 24 25 25 23 21 17 14 12 13 13 15 14 14 13 14 13 13 11 13 14 14 17 19 21 19 18 19 22 23 25 25 26
26 28 29 29 29 31 34 28 33 32 28 14 21 23 25 28 25 19 18 15 12 13 12 15 12 13 12 13 12 13 12 13 12 13 12 11 12 14 16 18 22 24 28 30
30 29 29 30 30 30 34 30 30 30 28 28 20 20 23 24 24 22 19 17 16 14 13 12 12 12 12 13 14 13 13 13 13 12 11 13 15 15 16 18 20 22 24 27
30 34 32 31 31 31 30 31 30 29 24 23 21 26 23 24 23 23 20 16 16 18 15 15 13 13 13 13 14 15 15 14 14 15 16 16 14 14 17 20 20 21 22 23
29 34 35 34 33 32 29 28 29 27 24 18 20 21 25 27 23 22 22 20 18 16 17 17 16 15 14 15 14 15 14 15 16 17 15 17 19 21 20 22 22 23 23 22
29 31 35 36 34 34 29 24 30 30 24 12 17 18 19 25 24 22 21 21 21 21 20 18 17 18 15 14 15 15 15 16 16 19 21 22 23 21 22 23 24 23 22 22
27 30 32 34 35 34 28 23 24 31 27 19 15 16 17 22 22 22 21 20 19 19 19 21 20 17 18 19 20 17 17 18 20 21 21 22 21 23 23 24 24 23 22 21
28 30 29 31 34 29 24 19 24 28 24 21 15 14 15 19 18 18 20 18 18 17 17 17 20 19 19 20 18 19 19 21 21 21 22 24 25 23 24 24 25 24 22 21
31 31 30 30 26 23 22 23 24 21 20 20 17 18 16 19 16 16 16 17 17 17 17 15 17 18 19 18 18 19 21 22 24 24 25 23 23 24 25 24 24 23 22 18
34 29 24 22 22 29 27 19 16 16 17 19 18 16 14 18 16 15 16 16 17 16 16 15 15 15 15 17 20 21 22 23 24 23 23 24 23 22 21 20 21 20 18 17
25 21 20 31 28 20 15 12 12 12 13 17 17 18 14 15 16 14 15 14 15 16 15 16 14 15 18 19 19 21 22 22 21 21 21 21 20 18 16 16 15 15 15 15
23 31 28 21 15 13 12 12 11 12 11 13 15 15 15 14 14 11 10 10 11 13 13 13 13 13 14 15 17 18 17 17 18 18 18 17 17 17 16 16 14 12 13 13
25 17 14 12 10 10 12 12 13 12 10 12 15 16 14 14 10 8 8 7 7 7 7 8 8 8 9 11 11 12 13 13 13 14 13 13 13 13 13 12 11 9 9 10
16 11 11 10 8 9 13 15 13 12 13 13 14 13 10 11 8 6 6 6 6 6 7 8 8 8 7 7 7 7 8 9 8 8 9 9 9 8 7 7 8 7 7 8
10 9 10 11 11 13 13 14 13 12 12 13 12 9 8 7 6 5 6 5 5 5 7 7 8 8 8 7 6 6 6 5 5 5 6 5 5 5 4 4 4 5 5 5
8 9 10 11 12 12 12 12 12 12 11 10 8 8 6 5 4 4 4 6 7 7 7 7 6 6 5 5 4 3 3 3 2 1 2 3 2 3 3 3 3 3 4 5
7 9 11 12 12 11 10 10 9 9 9 7 5 4 3 4 3 4 5 6 6 5 4 3 2 2 2 2 2 2 2 2 1 0 2 3 3 4 4 5 6 6 7 9
Wind_Direction
262 263 263 263 262 261 263 263 265 261 244 242 245 244 238 238 240 234 235 236 234 234 238 230 226 221 213 232 237 211 217 220 223 222 219 217 226 228 225 232 233 243 248 247
259 259 260 259 257 254 256 259 260 252 241 244 241 241 238 235 233 231 231 231 229 231 229 226 222 222 230 236 216 215 218 222 223 231 230 225 226 228 228 236 242 243 249 254
255 256 256 254 251 249 249 251 254 248 240 243 240 234 231 231 230 232 232 231 229 230 228 228 226 229 232 242 233 237 219 213 219 221 222 233 232 232 232 233 238 244 249 256
252 252 252 250 247 244 241 243 246 242 242 238 234 226 224 222 222 225 228 229 228 228 232 233 234 237 239 237 232 226 221 220 227 231 231 232 239 241 239 237 244 246 254 250
250 250 247 247 243 238 240 241 237 238 240 239 227 223 222 220 218 219 226 225 222 222 228 232 237 233 232 231 233 230 238 224 228 231 236 238 246 250 242 242 246 250 254 255
248 246 245 241 235 233 237 235 235 235 234 229 227 219 217 219 216 225 223 223 228 230 235 236 236 237 234 234 237 236 234 229 232 233 241 246 239 236 242 244 249 255 261 268
245 243 237 234 234 232 230 232 227 229 232 227 226 222 218 215 216 217 223 223 228 225 229 245 238 235 234 234 235 229 233 235 234 238 249 241 237 237 241 245 246 262 271 282
241 236 236 236 234 229 227 226 224 225 229 225 227 221 215 215 215 215 217 218 223 219 228 232 235 231 231 232 231 228 228 233 237 239 234 247 248 239 243 250 258 275 279 285
235 235 234 231 228 225 223 224 220 224 223 221 216 214 211 208 211 216 219 222 223 223 225 225 226 227 229 228 226 229 224 230 238 237 241 240 245 240 248 249 263 270 275 280
233 230 228 226 224 221 219 220 216 217 222 219 210 210 205 201 199 209 210 214 217 218 219 225 222 224 226 228 229 221 221 230 235 240 245 252 248 254 261 258 264 275 270 276
231 226 223 221 222 219 214 215 211 208 213 222 213 208 205 205 207 207 209 207 219 214 216 221 220 222 225 226 225 220 219 221 230 235 244 254 253 252 257 267 270 272 275 273
230 224 220 218 216 212 210 212 209 210 213 212 211 214 215 213 215 215 207 214 207 210 210 217 218 220 221 220 226 224 228 226 229 229 234 240 248 261 270 277 278 279 281 281
228 222 218 215 212 210 207 207 203 206 213 219 219 213 214 212 214 213 212 220 215 217 212 210 214 220 215 220 230 230 234 230 236 241 244 250 262 269 282 286 288 289 288 286
227 220 215 210 206 203 202 204 203 204 209 217 220 220 214 216 212 211 212 220 216 216 217 222 225 227 228 231 236 234 238 238 243 250 256 265 256 278 287 293 294 297 294 291
222 214 210 206 201 198 200 201 200 202 207 214 217 216 215 204 206 216 219 217 215 217 223 229 233 234 235 237 239 241 244 251 251 257 262 265 271 281 287 289 294 297 296 294
208 203 199 197 195 191 191 199 203 203 197 201 206 214 204 209 213 213 213 216 221 227 230 234 235 238 236 243 243 246 252 257 261 263 269 268 274 276 285 287 291 293 295 293
189 187 187 188 187 189 194 202 204 200 203 210 215 211 209 204 209 211 215 221 225 229 232 235 237 241 242 246 252 255 264 269 268 270 271 267 275 276 283 286 287 288 290 290
168 169 171 176 178 182 192 193 186 188 197 205 207 203 197 198 207 210 215 219 221 228 234 242 236 238 244 252 257 263 268 273 268 274 273 272 274 278 283 285 286 284 284 285
150 151 150 155 171 179 182 179 175 184 197 201 209 211 213 205 208 208 214 219 226 233 233 243 234 236 244 256 262 267 271 272 274 273 273 273 276 278 281 284 286 279 277 271
138 143 147 152 160 152 149 158 178 187 197 201 206 208 210 205 210 215 215 224 227 231 234 233 242 239 241 259 265 268 273 275 274 272 268 274 279 279 280 280 282 278 268 258
134 136 140 139 142 152 159 164 175 184 193 201 204 204 203 210 205 209 218 221 222 226 234 237 248 251 256 265 268 273 274 275 271 266 268 268 268 273 271 281 283 277 262 256
131 129 131 136 141 150 152 156 159 164 163 171 179 183 184 176 184 196 204 213 220 230 239 239 247 256 269 272 273 275 273 275 268 266 266 265 266 265 269 275 278 277 262 256
123 128 132 139 150 142 155 153 148 146 145 152 158 156 163 171 176 179 192 200 209 213 227 237 248 262 277 278 279 278 275 274 270 268 262 260 262 266 268 271 266 269 262 261
118 107 115 130 136 143 151 150 148 148 146 145 150 149 155 166 170 188 187 199 206 230 235 239 247 266 280 289 287 282 284 278 273 265 256 260 257 258 265 267 259 264 269 271
108 102 111 118 125 133 138 148 147 143 147 147 150 151 164 173 180 204 199 213 236 241 237 245 255 264 268 277 289 295 298 293 284 262 250 246 242 239 252 263 260 263 264 279
103 94 116 126 133 134 136 139 143 141 145 148 148 154 157 173 193 208 231 230 238 240 246 252 260 267 270 271 280 295 301 317 303 234 190 192 205 222 244 246 269 274 272 282
107 111 116 125 127 132 139 145 151 158 160 162 166 169 180 190 217 235 252 250 237 223 229 234 239 240 250 257 278 291 316 354 24 215 224 237 245 251 267 273 277 283 286 287